Auburn-Lewiston, ME

1:50 PM EDT on April 27, 2017 (GMT -0400)
Auburn-Lewiston Municipal

Weather History for KLEW - December, 2012

Change the Weather History Date:

Saturday, December 22, 2012

  Actual Average Record
Temperature  
Mean Temperature 32 °F -  
Max Temperature 39 °F 32 °F 51 °F (1998)
Min Temperature 24 °F 15 °F 1 °F (2004)
Degree Days  
Heating Degree Days 34    
Moisture  
Dew Point 24 °F    
Average Humidity 72    
Maximum Humidity 87    
Minimum Humidity 50    
Precipitation  
Precipitation 0.00 in - - ()
Sea Level Pressure  
Sea Level Pressure 29.28 in    
Wind  
Wind Speed 9 mph (WSW)    
Max Wind Speed 20 mph    
Max Gust Speed 29 mph    
Visibility 10 miles    
Events      
Averages and records for this station are not official NWS values.
T = Trace of Precipitation, MM = Missing Value Source: NWS Daily Summary

Daily Weather History Graph

Daily Weather History Graph

Search for Another Location

Airport or City:

Trip Planner

Search our weather history database for the weather conditions in past years. The results will help you decide how hot, cold, wet, or windy it might be!

Date:

Astronomy

Dec. 22, 2012 Rise Set
Actual Time 7:13 AM EST 4:06 PM EST
Civil Twilight 6:40 AM EST 4:39 PM EST
Nautical Twilight 6:03 AM EST 5:16 PM EST
Astronomical Twilight 5:28 AM EST 5:51 PM EST
Moon 12:28 PM EST (12/22) 1:48 AM EST (12/22)
Length of Visible Light 9h 59m
Length of Day
8h 52m
Waxing Gibbous, 73% of the Moon is Illuminated
Dec 22
Waxing Gibbous
Dec 28
Full
Jan 4
Last Quarter
Jan 11
New
Jan 18
First Quarter

Hourly Weather History & Observations

Time (EST) Temp. Windchill Dew Point Humidity Pressure Visibility Wind Dir Wind Speed Gust Speed Precip Events Conditions
12:15 AM 37.4 °F 29.8 °F 30.2 °F 75% 29.12 in 10.0 mi SSW 11.5 mph 16.1 mph N/A   Overcast
12:35 AM 37.4 °F 32.1 °F 30.2 °F 75% 29.12 in 10.0 mi SSW 6.9 mph - N/A   Overcast
12:55 AM 37.4 °F 32.8 °F 30.2 °F 75% 29.12 in 10.0 mi SSW 5.8 mph - N/A   Overcast
1:15 AM 37.4 °F 31.4 °F 32.0 °F 81% 29.12 in 10.0 mi SSW 8.1 mph - N/A   Overcast
1:35 AM 37.4 °F 30.8 °F 30.2 °F 75% 29.13 in 10.0 mi South 9.2 mph - N/A   Overcast
1:55 AM 35.6 °F 29.9 °F 30.2 °F 81% 29.14 in 10.0 mi South 6.9 mph - N/A   Mostly Cloudy
2:15 AM 35.6 °F 28.6 °F 30.2 °F 81% 29.14 in 10.0 mi South 9.2 mph - N/A   Partly Cloudy
2:35 AM 35.6 °F 28.0 °F 30.2 °F 81% 29.14 in 10.0 mi South 10.4 mph - N/A   Scattered Clouds
2:55 AM 35.6 °F 28.6 °F 30.2 °F 81% 29.15 in 10.0 mi South 9.2 mph - N/A   Overcast
3:15 AM 35.6 °F 28.6 °F 30.2 °F 81% 29.15 in 10.0 mi South 9.2 mph - N/A   Overcast
3:35 AM 35.6 °F 29.2 °F 30.2 °F 81% 29.15 in 10.0 mi South 8.1 mph - N/A   Overcast
3:55 AM 35.6 °F 29.2 °F 30.2 °F 81% 29.16 in 10.0 mi South 8.1 mph - N/A   Overcast
4:35 AM 35.6 °F 29.2 °F 30.2 °F 81% 29.16 in 10.0 mi South 8.1 mph - N/A   Clear
4:55 AM 33.8 °F 28.6 °F 30.2 °F 87% 29.17 in 10.0 mi South 5.8 mph - N/A   Scattered Clouds
5:15 AM 33.8 °F 27.7 °F 30.2 °F 87% 29.18 in 10.0 mi South 6.9 mph - N/A   Overcast
5:35 AM 33.8 °F 27.0 °F 30.2 °F 87% 29.19 in 10.0 mi South 8.1 mph - N/A   Overcast
5:55 AM 33.8 °F 27.0 °F 30.2 °F 87% 29.20 in 10.0 mi South 8.1 mph - N/A   Scattered Clouds
6:15 AM 33.8 °F 27.0 °F 30.2 °F 87% 29.20 in 10.0 mi South 8.1 mph - N/A   Clear
6:35 AM 33.8 °F 26.4 °F 30.2 °F 87% 29.21 in 10.0 mi South 9.2 mph - N/A   Mostly Cloudy
6:55 AM 33.8 °F 25.8 °F 30.2 °F 87% 29.22 in 10.0 mi South 10.4 mph - N/A   Overcast
7:15 AM 33.8 °F 26.4 °F 30.2 °F 87% 29.22 in 10.0 mi South 9.2 mph - N/A   Overcast
7:35 AM 33.8 °F 26.4 °F 30.2 °F 87% 29.22 in 10.0 mi South 9.2 mph - N/A   Overcast
7:55 AM 33.8 °F 25.8 °F 28.4 °F 81% 29.23 in 10.0 mi South 10.4 mph - N/A   Mostly Cloudy
8:15 AM 33.8 °F 27.7 °F 28.4 °F 81% 29.23 in 10.0 mi South 6.9 mph - N/A   Mostly Cloudy
8:35 AM 33.8 °F 27.7 °F 30.2 °F 87% 29.24 in 10.0 mi South 6.9 mph - N/A   Overcast
8:55 AM 33.8 °F 26.4 °F 30.2 °F 87% 29.24 in 10.0 mi South 9.2 mph - N/A   Overcast
9:15 AM 35.6 °F 29.9 °F 30.2 °F 81% 29.24 in 10.0 mi South 6.9 mph - N/A   Overcast
9:55 AM 37.4 °F 33.8 °F 30.2 °F 75% 29.24 in 10.0 mi South 4.6 mph - N/A   Overcast
10:15 AM 37.4 °F 33.8 °F 30.2 °F 75% 29.24 in 10.0 mi South 4.6 mph - N/A   Overcast
10:35 AM 37.4 °F 32.8 °F 30.2 °F 75% 29.24 in 10.0 mi SW 5.8 mph - N/A   Overcast
11:15 AM 37.4 °F 31.4 °F 30.2 °F 75% 29.23 in 10.0 mi West 8.1 mph - N/A   Overcast
11:35 AM 37.4 °F 33.8 °F 30.2 °F 75% 29.23 in 10.0 mi SW 4.6 mph - N/A   Mostly Cloudy
11:55 AM 37.4 °F 32.1 °F 30.2 °F 75% 29.23 in 10.0 mi SW 6.9 mph - N/A   Overcast
12:15 PM 39.2 °F 35.9 °F 30.2 °F 70% 29.22 in 10.0 mi SSW 4.6 mph - N/A   Overcast
12:35 PM 39.2 °F 33.0 °F 30.2 °F 70% 29.22 in 10.0 mi SW 9.2 mph - N/A   Overcast
12:55 PM 39.2 °F 32.5 °F 28.4 °F 65% 29.22 in 10.0 mi WSW 10.4 mph - N/A   Overcast
1:15 PM 37.4 °F 32.1 °F 28.4 °F 70% 29.22 in 10.0 mi WSW 6.9 mph - N/A   Overcast
1:35 PM 37.4 °F 28.9 °F 26.6 °F 65% 29.24 in 10.0 mi WSW 13.8 mph 18.4 mph N/A   Overcast
1:55 PM 35.6 °F 27.5 °F 28.4 °F 75% 29.25 in 6.0 mi NW 11.5 mph 16.1 mph N/A   Overcast
2:15 PM 33.8 °F 27.0 °F 28.4 °F 81% 29.26 in 3.0 mi NW 8.1 mph - N/A   Overcast
2:55 PM 33.8 °F 30.8 °F 28.4 °F 81% 29.28 in 4.0 mi NW 3.5 mph - N/A   Overcast
3:15 PM 32.0 °F 26.4 °F 26.6 °F 80% 29.29 in 7.0 mi WNW 5.8 mph - N/A   Overcast
3:35 PM 32.0 °F 24.8 °F 26.6 °F 80% 29.30 in 8.0 mi NW 8.1 mph - N/A   Overcast
3:55 PM 32.0 °F 26.4 °F 26.6 °F 80% 29.31 in 10.0 mi NNW 5.8 mph - N/A   Overcast
4:15 PM 32.0 °F 23.6 °F 24.8 °F 75% 29.32 in 10.0 mi NW 10.4 mph - N/A   Overcast
4:35 PM 30.2 °F 20.8 °F 21.2 °F 69% 29.33 in 10.0 mi NW 11.5 mph - N/A   Overcast
4:55 PM 30.2 °F 21.9 °F 19.4 °F 64% 29.34 in 10.0 mi NW 9.2 mph 18.4 mph N/A   Overcast
5:35 PM 30.2 °F 21.3 °F 15.8 °F 55% 29.36 in 10.0 mi NW 10.4 mph - N/A   Overcast
5:55 PM 30.2 °F 21.3 °F 15.8 °F 55% 29.37 in 10.0 mi NW 10.4 mph 18.4 mph N/A   Overcast
6:15 PM 28.4 °F 18.5 °F 15.8 °F 59% 29.39 in 10.0 mi NW 11.5 mph 23.0 mph N/A   Overcast
6:35 PM 28.4 °F 19.1 °F 14.0 °F 55% 29.40 in 10.0 mi NW 10.4 mph 17.3 mph N/A   Mostly Cloudy
7:15 PM 26.6 °F 13.4 °F 12.2 °F 55% 29.42 in 10.0 mi NW 18.4 mph 27.6 mph N/A   Clear
7:35 PM 26.6 °F 13.1 °F 10.4 °F 51% 29.43 in 10.0 mi NW 19.6 mph 25.3 mph N/A   Mostly Cloudy
7:55 PM 26.6 °F 17.5 °F 10.4 °F 51% 29.44 in 10.0 mi NW 9.2 mph 19.6 mph N/A   Mostly Cloudy
8:15 PM 26.6 °F 14.3 °F 10.4 °F 51% 29.45 in 10.0 mi NW 16.1 mph 21.9 mph N/A   Overcast
8:35 PM 26.6 °F 13.4 °F 10.4 °F 51% 29.46 in 10.0 mi NW 18.4 mph 26.5 mph N/A   Overcast
8:55 PM 26.6 °F 15.7 °F 10.4 °F 51% 29.47 in 10.0 mi NW 12.7 mph 23.0 mph N/A   Overcast
9:15 PM 24.8 °F 13.4 °F 10.4 °F 54% 29.47 in 10.0 mi NW 12.7 mph 20.7 mph N/A   Overcast
9:55 PM 24.8 °F 14.0 °F 10.4 °F 54% 29.48 in 10.0 mi NW 11.5 mph 18.4 mph N/A   Overcast
10:15 PM 24.8 °F 12.9 °F 8.6 °F 50% 29.49 in 10.0 mi NW 13.8 mph 28.8 mph N/A   Overcast
10:35 PM 24.8 °F 11.1 °F 10.4 °F 54% 29.49 in 10.0 mi NNW 18.4 mph 21.9 mph N/A   Overcast
10:55 PM 24.8 °F 12.4 °F 10.4 °F 54% 29.50 in 10.0 mi NW 15.0 mph 21.9 mph N/A   Overcast
11:15 PM 24.8 °F 14.6 °F 10.4 °F 54% 29.51 in 10.0 mi NW 10.4 mph 24.2 mph N/A   Overcast
11:35 PM 24.8 °F 13.4 °F 8.6 °F 50% 29.50 in 10.0 mi NW 12.7 mph 20.7 mph N/A   Overcast
11:55 PM 24.8 °F 11.5 °F 8.6 °F 50% 29.51 in 10.0 mi NW 17.3 mph 21.9 mph N/A   Overcast